Вернуться в каталог

ELECTRON KICK STAGE R/B

АктивенSSO
NORAD 45728·ROCKET BODY·🇺🇸 United States

Запущен Jun 13, 2020 с Rocket Lab Launch Complex 1

Loading…

Ближайшие Пролёты (ближайшие 24 часа)

TLE

СвежийSource: Space-Track

Эпоха: Sep 14, 2026, 20:31 UTC

1 45728U 20037F   26257.85510671  .00007451  00000-0  34183-3 0  9992
2 45728  97.7503 104.1428 0006114 172.0122 188.1211 15.20725052131822

Отслеживайте ELECTRON KICK STAGE R/B в реальном времени с AllMySat

Download on the App Store